Location: Poughquag
(41.6090°N, 73.6820°W)
Time: 02:23:49
(UTC-04:00)

Vanguard 2 Rocket - Pass Details

Date: 07 June 2020
Orbit: 556 x 3324 km, 32.9° (Epoch: 06 July)

Event Time Altitude Azimuth Distance (km) Brightness Sun altitude
Rises 19:47:20 0° 268° (W) 4,699 11.8 5.7°
Reaches altitude 10° 19:50:53 10° 254° (WSW) 4,111 11.1 5.1°
Maximum altitude 19:59:24 24° 207° (SSW) 3,937 10.2 3.6°
Drops below altitude 10° 20:11:11 10° 163° (SSE) 5,816 10.6 1.7°
Sets 20:17:44 0° 152° (SSE) 7,130 10.9 0.7°
